Huddy, KY (41535)

4:59 PM EST on February 11, 2016 (GMT -0500)
West Williamson, WV | | Change Station
CLOSE
Current Station
Personal Weather Station
Location: Williamson, WV
Elevation: 682 ft
Nearby Weather Stations
Active Advisory: Winter Weather Advisory Active Notice: Record Report

Elev 682 ft 37.68 °N, 82.29 °W | Updated 2 seconds ago

Clear
Clear
34.0 °F
Feels Like 34 °F
N
0.9
Wind Variable Wind from West
Gusts 2.5 mph

Today
High -- | Low -- °F
--% Chance of Precip.
Yesterday
High -- | Low -- °F
Precip. -- in
Pressure 30.22 in
Visibility 10.0 miles
Clouds Clear
Windchill 34 °F
Dew Point 5 °F
Humidity 29%
Rainfall 0.00 in
Snow Depth Not available.
7:23 AM 6:03 PM
Waxing Crescent, 14% visible
METAR KSJS 112135Z AUTO 32003KT 10SM CLR M02/M14 A3022 RMK AO2 T10181136
Pressure 30.22 in
Visibility 10.0 miles
Clouds Clear
Windchill 34 °F
Dew Point 5 °F
Humidity 29%
Rainfall 0.00 in
Snow Depth Not available.
7:23 AM 6:03 PM
Waxing Crescent, 14% visible
METAR KSJS 112135Z AUTO 32003KT 10SM CLR M02/M14 A3022 RMK AO2 T10181136

10-Day Weather Forecast

Almanac

Astronomy

Feb. 11, 2016 Rise Set
Actual Time
Civil Twilight
Nautical Twilight
Astronomical Twilight
Moon
Length of Visible Light
Length of Day
Tomorrow will be .
, % of the Moon is Illuminated

Today's Extremes

State Highs State Lows

Community

WunderPhotos

Upload Photos

1,892,165 photos uploaded!

WunderBlog® & News

Nearby

Air Quality

  Air Quality AQ Index Pollutant
Not available.

Snow Depth

Station Depth Elevation

Earthquake Activity

City Distance Mag. Time & Date
Minimum magnitude displayed is 2.5.

Coastal Water Temperatures

Place Temperature

Stations

Nearby Weather Stations

Station Location Temp. Windchill Dew Point Humidity Wind Precip. Elev Updated Type
                   

Watches & Warnings

Winter Weather Advisory
Issued: 2:40 PM EST Feb. 11, 2016 – National Weather Service

... Winter Weather Advisory in effect from 5 am to noon EST
Friday...

The National Weather Service in Jackson has issued a Winter
Weather Advisory for snow... which is in effect from 5 am to noon
EST Friday.

* Expect snow to develop around 5 am Friday and then diminish
around noon Friday.

* Total snow accumulations of around an inch are expected for most
of the advisory area with local amounts up to an inch and a
half possible near the Tennessee border.

* Look for reduced visibilities at times with the heavier snow
showers.

* Plan on slippery Road conditions... including during the
morning commute on Friday.

Precautionary/preparedness actions...

A Winter Weather Advisory for snow means periods of snow will
cause primarily travel difficulties. Be prepared for snow covered
roads and limited visibilities... and use caution while driving.


Greif